EN

Hourly Weather Kyselivka

Today, 26 July, Monday

Time Temperature Precipitation Wind Pressure Humidity
00:00 +18°C° 0 mm 2 mps 744 mmHg 76%
01:00 +18°C° 0 mm 2 mps 744 mmHg 77%
02:00 +18°C° 0 mm 2 mps 744 mmHg 77%
03:00 +18°C° 0 mm 2 mps 744 mmHg 76%
04:00 +18°C° 0 mm 2 mps 744 mmHg 75%
05:00 +18°C° 0 mm 2 mps 744 mmHg 74%
06:00 +20°C° 0 mm 3 mps 744 mmHg 70%
07:00 +21°C° 0 mm 3 mps 745 mmHg 65%
08:00 +24°C° 0 mm 3 mps 745 mmHg 60%
09:00 +26°C° 0 mm 4 mps 745 mmHg 54%
10:00 +27°C° 0 mm 4 mps 745 mmHg 49%
11:00 +29°C° 0 mm 5 mps 745 mmHg 43%
12:00 +29°C° 0 mm 5 mps 745 mmHg 43%
13:00 +29°C° 0 mm 5 mps 745 mmHg 42%
14:00 +30°C° 0 mm 5 mps 745 mmHg 42%
15:00 +29°C° 0 mm 5 mps 744 mmHg 46%
16:00 +29°C° 0 mm 4 mps 744 mmHg 49%
17:00 +28°C° 0 mm 4 mps 744 mmHg 53%
18:00 +27°C° 0 mm 4 mps 744 mmHg 57%
19:00 +25°C° 0 mm 4 mps 744 mmHg 62%
20:00 +24°C° 0 mm 3 mps 744 mmHg 67%
21:00 +22°C° 0 mm 3 mps 744 mmHg 68%
22:00 +21°C° 0 mm 3 mps 744 mmHg 69%
23:00 +20°C° 0 mm 3 mps 744 mmHg 69%

Tomorrow, 27 July, Tuesday

Time Temperature Precipitation Wind Pressure Humidity
00:00 +20°C° 0 mm 3 mps 744 mmHg 70%
01:00 +19°C° 0 mm 3 mps 744 mmHg 71%
02:00 +19°C° 0 mm 3 mps 744 mmHg 72%
03:00 +19°C° 0 mm 3 mps 744 mmHg 71%
04:00 +19°C° 0 mm 3 mps 744 mmHg 70%
05:00 +19°C° 0 mm 3 mps 743 mmHg 69%
06:00 +21°C° 0 mm 4 mps 743 mmHg 66%
07:00 +22°C° 0 mm 5 mps 743 mmHg 62%
08:00 +25°C° 0 mm 5 mps 743 mmHg 58%
09:00 +25°C° 0.3 mm 5 mps 743 mmHg 61%
10:00 +25°C° 0.3 mm 5 mps 743 mmHg 64%
11:00 +25°C° 0.3 mm 4 mps 743 mmHg 67%
12:00 +26°C° 0.2 mm 4 mps 743 mmHg 66%
13:00 +26°C° 0.2 mm 4 mps 743 mmHg 64%
14:00 +27°C° 0.2 mm 4 mps 743 mmHg 63%
15:00 +27°C° 0.1 mm 4 mps 742 mmHg 64%
16:00 +27°C° 0.1 mm 4 mps 742 mmHg 64%
17:00 +27°C° 0.1 mm 4 mps 742 mmHg 65%
18:00 +26°C° 0.2 mm 4 mps 742 mmHg 70%
19:00 +25°C° 0.2 mm 4 mps 742 mmHg 75%
20:00 +22°C° 0.2 mm 4 mps 742 mmHg 80%
21:00 +21°C° 1.3 mm 3 mps 742 mmHg 84%
22:00 +20°C° 1.3 mm 3 mps 742 mmHg 87%
23:00 +20°C° 1.3 mm 2 mps 742 mmHg 91%

Day after tomorrow, 28 July, Wednesday

Time Temperature Precipitation Wind Pressure Humidity
00:00 +19°C° 0.2 mm 3 mps 742 mmHg 91%
01:00 +19°C° 0.2 mm 3 mps 741 mmHg 92%
02:00 +18°C° 0.2 mm 3 mps 741 mmHg 93%
03:00 +18°C° 0.5 mm 2 mps 741 mmHg 93%
04:00 +18°C° 0.5 mm 2 mps 741 mmHg 94%
05:00 +19°C° 0.5 mm 1 mps 741 mmHg 94%
06:00 +21°C° 0.2 mm 1 mps 741 mmHg 89%
07:00 +22°C° 0.2 mm 1 mps 741 mmHg 84%
08:00 +22°C° 0.2 mm 0 mps 741 mmHg 79%
09:00 +25°C° 0 mm 1 mps 741 mmHg 73%
10:00 +27°C° 0 mm 1 mps 741 mmHg 67%
11:00 +28°C° 0 mm 1 mps 741 mmHg 61%
12:00 +29°C° 0 mm 1 mps 741 mmHg 57%
13:00 +30°C° 0 mm 2 mps 741 mmHg 53%
14:00 +31°C° 0 mm 2 mps 740 mmHg 49%
15:00 +31°C° 0 mm 2 mps 740 mmHg 48%
16:00 +31°C° 0 mm 1 mps 740 mmHg 48%
17:00 +31°C° 0 mm 1 mps 739 mmHg 47%
18:00 +29°C° 0.1 mm 1 mps 739 mmHg 55%
19:00 +27°C° 0.1 mm 1 mps 739 mmHg 62%
20:00 +25°C° 0.1 mm 2 mps 739 mmHg 69%
21:00 +24°C° 0.4 mm 2 mps 739 mmHg 75%
22:00 +23°C° 0.4 mm 2 mps 739 mmHg 81%
23:00 +21°C° 0.4 mm 3 mps 739 mmHg 87%

29 July, Thursday

Time Temperature Precipitation Wind Pressure Humidity
00:00 +21°C° 0.4 mm 2 mps 739 mmHg 87%
01:00 +21°C° 0.4 mm 2 mps 738 mmHg 88%
02:00 +21°C° 0.4 mm 2 mps 738 mmHg 88%
03:00 +20°C° 0 mm 2 mps 738 mmHg 89%
04:00 +20°C° 0 mm 3 mps 738 mmHg 89%
05:00 +19°C° 0 mm 3 mps 738 mmHg 90%
06:00 +20°C° 0 mm 3 mps 738 mmHg 86%
07:00 +22°C° 0 mm 3 mps 738 mmHg 83%
08:00 +23°C° 0 mm 4 mps 738 mmHg 79%
09:00 +25°C° 0 mm 4 mps 738 mmHg 74%
10:00 +27°C° 0 mm 4 mps 738 mmHg 68%
11:00 +28°C° 0 mm 5 mps 738 mmHg 63%
12:00 +29°C° 0 mm 5 mps 738 mmHg 61%
13:00 +29°C° 0 mm 5 mps 738 mmHg 59%
14:00 +29°C° 0 mm 6 mps 738 mmHg 57%
15:00 +29°C° 0.1 mm 5 mps 738 mmHg 59%
16:00 +29°C° 0.1 mm 5 mps 738 mmHg 61%
17:00 +28°C° 0.1 mm 5 mps 738 mmHg 64%
18:00 +27°C° 0.1 mm 4 mps 738 mmHg 69%
19:00 +25°C° 0.1 mm 3 mps 739 mmHg 75%
20:00 +23°C° 0.1 mm 2 mps 739 mmHg 81%
21:00 +23°C° 0 mm 2 mps 739 mmHg 83%
22:00 +21°C° 0 mm 2 mps 739 mmHg 86%
23:00 +20°C° 0 mm 2 mps 739 mmHg 88%

30 July, Friday

Time Temperature Precipitation Wind Pressure Humidity
00:00 +20°C° 0 mm 2 mps 739 mmHg 89%
01:00 +19°C° 0 mm 2 mps 739 mmHg 90%
02:00 +19°C° 0 mm 2 mps 740 mmHg 91%
03:00 +18°C° 0 mm 2 mps 740 mmHg 90%
04:00 +18°C° 0 mm 2 mps 740 mmHg 90%
05:00 +18°C° 0 mm 2 mps 740 mmHg 90%
06:00 +20°C° 0 mm 2 mps 740 mmHg 82%
07:00 +23°C° 0 mm 2 mps 740 mmHg 74%
08:00 +24°C° 0 mm 2 mps 740 mmHg 66%
09:00 +26°C° 0 mm 2 mps 740 mmHg 59%
10:00 +27°C° 0 mm 2 mps 740 mmHg 51%
11:00 +29°C° 0 mm 2 mps 740 mmHg 44%
12:00 +29°C° 0 mm 2 mps 740 mmHg 43%
13:00 +30°C° 0 mm 3 mps 740 mmHg 41%
14:00 +30°C° 0 mm 3 mps 739 mmHg 39%
15:00 +30°C° 0 mm 3 mps 739 mmHg 41%
16:00 +30°C° 0 mm 3 mps 739 mmHg 43%
17:00 +30°C° 0 mm 2 mps 738 mmHg 44%
18:00 +28°C° 0 mm 2 mps 738 mmHg 49%
19:00 +26°C° 0 mm 2 mps 738 mmHg 55%
20:00 +24°C° 0 mm 1 mps 738 mmHg 60%
21:00 +23°C° 0 mm 1 mps 738 mmHg 64%
22:00 +22°C° 0 mm 1 mps 738 mmHg 68%
23:00 +21°C° 0 mm 1 mps 738 mmHg 72%

31 July, Saturday

Time Temperature Precipitation Wind Pressure Humidity
00:00 +20°C° 0.1 mm 2 mps 738 mmHg 75%
01:00 +20°C° 0.1 mm 2 mps 737 mmHg 78%
02:00 +20°C° 0.1 mm 2 mps 737 mmHg 80%
03:00 +20°C° 0.1 mm 2 mps 737 mmHg 81%
04:00 +19°C° 0.1 mm 2 mps 737 mmHg 82%
05:00 +20°C° 0.1 mm 1 mps 737 mmHg 82%
06:00 +20°C° 0.7 mm 2 mps 737 mmHg 81%
07:00 +23°C° 0.7 mm 2 mps 737 mmHg 80%
08:00 +24°C° 0.7 mm 2 mps 737 mmHg 79%
09:00 +25°C° 0.1 mm 3 mps 737 mmHg 72%
10:00 +27°C° 0.1 mm 3 mps 736 mmHg 66%
11:00 +29°C° 0.1 mm 4 mps 736 mmHg 59%
12:00 +30°C° 0 mm 3 mps 736 mmHg 57%
13:00 +31°C° 0 mm 3 mps 735 mmHg 56%
14:00 +31°C° 0 mm 3 mps 735 mmHg 54%
15:00 +28°C° 5.3 mm 5 mps 734 mmHg 65%
16:00 +24°C° 5.3 mm 8 mps 734 mmHg 77%
17:00 +21°C° 5.3 mm 10 mps 733 mmHg 88%
18:00 +20°C° 2.6 mm 8 mps 734 mmHg 91%
19:00 +20°C° 2.6 mm 5 mps 734 mmHg 93%
20:00 +19°C° 2.6 mm 3 mps 735 mmHg 95%
21:00 +19°C° 0 mm 3 mps 736 mmHg 95%
22:00 +18°C° 0 mm 2 mps 736 mmHg 94%
23:00 +18°C° 0 mm 2 mps 736 mmHg 94%
Show more